DELTA 1 DEB, 14529

Orbit data source: Space-Track

DELTA 1 DEB, 14529 is space debris in LEO originally from a launch on Thu, 14 Jul 1977 UTC launched from the Air Force Eastern Test Range (AFETR). Debris objects in space refer to the collection of defunct objects orbiting the Earth. Examples of debris include non-operational satellites, rocket bodies, and fragments generated from explosions, collisions, or faulty payload assembly.

Loading next visibility...
Identifier
14529, 1977-065FQ
Orbit
LEO
Country
Flag of USUS
Related business
Manufacturer
Unknown
Mission
Spacecraft
Bus & Motor
Unknown
Mass
Unknown
Launch date (UTC)
1977-07-14 (48 years ago)
Launch vehicle
Unknown
Launch site
Air Force Eastern Test Range (AFETR)
Object type
Payload
Rocket body
Debris
Shape & HBR
Unknown shape, 0.1 m
Radar Cross Section
Small (<0.1 m²)

Expand to show TLE details & history
Last TLE update: 2 weeks ago

TLE from 2 weeks ago
0 DELTA 1 DEB
1 14529U 77065FQ  25339.24674425  .00000972  00000-0  28559-2 0  9991
2 14529  29.0516 314.9114 0626718 115.7249 250.9316 12.51597216465851
Epoch: 2025-12-05T05:55Z
TLE epoch observation values (Epoch: 2025-12-05T05:55:18.703Z)
Latitude
-0.00001°
Longitude
151.79187°
Altitude
1,643.346 km
Speed
6.968 km/s
True Right ascension
20h 59m 38s
True Declination
0° 00' 00"
Sunlit
Object was in daylight at epoch
Visualization orbit readout
Latitude
Unknown
Longitude
Unknown
Altitude
Unknown
Speed
Unknown
Apparent Right ascension
Unknown
Apparent Declination
Unknown
Sunlit
N/A
Visualization observer readout
Local Sidereal Time
20:55:55
Azimuth
Unknown
Elevation
Unknown
Doppler factor
Unknown
Orbital elements
Apogee altitude
1,952.804 km
Perigee altitude
970.158 km
Semi-major axis
7,839.618 km
Eccentricity
0.06267
Inclination
29.0516°
RAAN
314.9114°
Arg. of periapsis
115.7249°
True anomaly
244.32815°
Mean anomaly
250.9316°
Eccentric anomaly
247.61144°
Mean motion
3.1268 °/min
Orbital period
115.13 mins
BSTAR
0.0028559
Loading maneuver chart data...
Computing Atmospheric mass density...
Loading historical data...
Loading historical data...
Loading historical data...
Loading historical data...
Loading historical data...
Loading historical data...
Loading historical data...

Documentation

Showing up to 5 results
|